When you browse on this site, cookies collect data to enhance your experience and personalize the content and advertising you see.
Visit our Privacy Policy to learn more. By continuing to use the site, you agree to this use of cookies and data.
  • In Sweden
  • List of Countries
  • For 7 days
  • Water Temperature
  • Satellite Maps
  • Weather Map
  • Weather Widgets
  • user-avatar
    Login

    Hourly Weather Midlothian

    Today, 21 January, Monday

    Time Temperature Precipitation Wind Pressure Humidity
    00:00 -2°C° 0 mm 2 mps 743 mmHg 87%
    01:00 -2°C° 0 mm 2 mps 743 mmHg 86%
    02:00 -2°C° 0 mm 3 mps 742 mmHg 84%
    03:00 -2°C° 0 mm 3 mps 742 mmHg 83%
    04:00 -2°C° 0 mm 3 mps 742 mmHg 83%
    05:00 -2°C° 0 mm 3 mps 741 mmHg 83%
    06:00 -2°C° 0 mm 3 mps 741 mmHg 84%
    07:00 -2°C° 0 mm 3 mps 741 mmHg 83%
    08:00 -3°C° 0 mm 4 mps 740 mmHg 81%
    09:00 -2°C° 0 mm 4 mps 739 mmHg 80%
    10:00 -1°C° 0 mm 5 mps 739 mmHg 78%
    11:00 0°C° 0 mm 5 mps 738 mmHg 76%
    12:00 +1°C° 0 mm 6 mps 737 mmHg 74%
    13:00 +1°C° 0 mm 6 mps 736 mmHg 75%
    14:00 +1°C° 0 mm 6 mps 734 mmHg 76%
    15:00 0°C° 0 mm 7 mps 733 mmHg 77%
    16:00 0°C° 0.1 mm 7 mps 731 mmHg 78%
    17:00 0°C° 0.1 mm 8 mps 730 mmHg 80%
    18:00 0°C° 0.1 mm 8 mps 728 mmHg 82%
    19:00 0°C° 0.5 mm 8 mps 727 mmHg 85%
    20:00 0°C° 0.5 mm 7 mps 726 mmHg 87%
    21:00 0°C° 0.5 mm 7 mps 725 mmHg 90%
    22:00 +1°C° 0.5 mm 6 mps 725 mmHg 88%
    23:00 -1°C° 0.5 mm 6 mps 725 mmHg 87%

    Tomorrow, 22 January, Tuesday

    Time Temperature Precipitation Wind Pressure Humidity
    00:00 -1°C° 0.5 mm 5 mps 724 mmHg 85%
    01:00 -1°C° 0 mm 5 mps 724 mmHg 85%
    02:00 -2°C° 0 mm 5 mps 724 mmHg 84%
    03:00 -4°C° 0 mm 6 mps 724 mmHg 84%
    04:00 -4°C° 0 mm 5 mps 724 mmHg 84%
    05:00 -4°C° 0 mm 5 mps 723 mmHg 85%
    06:00 -4°C° 0 mm 5 mps 723 mmHg 85%
    07:00 -3°C° 0 mm 4 mps 723 mmHg 86%
    08:00 -4°C° 0 mm 4 mps 724 mmHg 86%
    09:00 -4°C° 0 mm 3 mps 724 mmHg 87%
    10:00 -2°C° 0 mm 3 mps 724 mmHg 84%
    11:00 -1°C° 0 mm 3 mps 724 mmHg 82%
    12:00 0°C° 0 mm 3 mps 723 mmHg 80%
    13:00 0°C° 0 mm 3 mps 723 mmHg 82%
    14:00 0°C° 0 mm 3 mps 723 mmHg 83%
    15:00 -1°C° 0 mm 2 mps 723 mmHg 85%
    16:00 -2°C° 0 mm 2 mps 723 mmHg 86%
    17:00 -2°C° 0 mm 3 mps 724 mmHg 88%
    18:00 -4°C° 0 mm 3 mps 724 mmHg 90%
    19:00 -5°C° 0 mm 3 mps 724 mmHg 89%
    20:00 -5°C° 0 mm 3 mps 724 mmHg 89%
    21:00 -5°C° 0 mm 3 mps 724 mmHg 89%
    22:00 -5°C° 0 mm 3 mps 725 mmHg 88%
    23:00 -5°C° 0 mm 3 mps 725 mmHg 87%

    Day after tomorrow, 23 January, Wednesday

    Time Temperature Precipitation Wind Pressure Humidity
    00:00 -5°C° 0 mm 3 mps 726 mmHg 85%
    01:00 -5°C° 0 mm 3 mps 726 mmHg 85%
    02:00 -5°C° 0 mm 3 mps 726 mmHg 85%
    03:00 -5°C° 0 mm 3 mps 727 mmHg 84%
    04:00 -5°C° 0 mm 3 mps 727 mmHg 84%
    05:00 -5°C° 0 mm 3 mps 727 mmHg 84%
    06:00 -6°C° 0 mm 3 mps 728 mmHg 84%
    07:00 -5°C° 0 mm 3 mps 728 mmHg 83%
    08:00 -5°C° 0 mm 3 mps 729 mmHg 82%
    09:00 -5°C° 0 mm 3 mps 730 mmHg 81%
    10:00 -4°C° 0 mm 3 mps 730 mmHg 78%
    11:00 -1°C° 0 mm 3 mps 730 mmHg 74%
    12:00 0°C° 0 mm 3 mps 731 mmHg 71%
    13:00 0°C° 0 mm 3 mps 731 mmHg 74%
    14:00 0°C° 0 mm 3 mps 731 mmHg 78%
    15:00 0°C° 0 mm 3 mps 731 mmHg 81%
    16:00 -1°C° 0 mm 3 mps 732 mmHg 84%
    17:00 -2°C° 0 mm 3 mps 732 mmHg 87%
    18:00 -2°C° 0 mm 3 mps 732 mmHg 91%
    19:00 -3°C° 0 mm 4 mps 733 mmHg 90%
    20:00 -3°C° 0 mm 4 mps 733 mmHg 90%
    21:00 -2°C° 0 mm 4 mps 733 mmHg 89%
    22:00 -2°C° 0.1 mm 4 mps 733 mmHg 90%
    23:00 -2°C° 0.1 mm 4 mps 733 mmHg 91%

    24 January, Thursday

    Time Temperature Precipitation Wind Pressure Humidity
    00:00 -1°C° 0.1 mm 4 mps 732 mmHg 92%
    01:00 -1°C° 0.3 mm 4 mps 732 mmHg 92%
    02:00 -1°C° 0.3 mm 4 mps 732 mmHg 92%
    03:00 0°C° 0.3 mm 4 mps 732 mmHg 92%
    04:00 0°C° 0.3 mm 4 mps 731 mmHg 93%
    05:00 0°C° 0.3 mm 4 mps 731 mmHg 94%
    06:00 +1°C° 0.3 mm 4 mps 731 mmHg 95%
    07:00 +1°C° 0.3 mm 4 mps 731 mmHg 96%
    08:00 +2°C° 0.3 mm 3 mps 730 mmHg 97%
    09:00 +3°C° 0.3 mm 3 mps 730 mmHg 97%
    10:00 +3°C° 0.2 mm 3 mps 730 mmHg 97%
    11:00 +4°C° 0.2 mm 4 mps 730 mmHg 97%
    12:00 +5°C° 0.2 mm 4 mps 730 mmHg 97%
    13:00 +5°C° 0 mm 4 mps 730 mmHg 96%
    14:00 +6°C° 0 mm 5 mps 731 mmHg 96%
    15:00 +6°C° 0 mm 5 mps 731 mmHg 95%
    16:00 +6°C° 0 mm 5 mps 731 mmHg 94%
    17:00 +6°C° 0 mm 5 mps 731 mmHg 94%
    18:00 +5°C° 0 mm 6 mps 731 mmHg 93%
    19:00 +5°C° 0 mm 6 mps 732 mmHg 93%
    20:00 +5°C° 0 mm 7 mps 732 mmHg 93%
    21:00 +5°C° 0 mm 7 mps 732 mmHg 93%
    22:00 +5°C° 0 mm 7 mps 732 mmHg 92%
    23:00 +5°C° 0 mm 7 mps 732 mmHg 92%

    25 January, Friday

    Time Temperature Precipitation Wind Pressure Humidity
    00:00 +5°C° 0 mm 7 mps 732 mmHg 92%
    01:00 +5°C° 0 mm 7 mps 732 mmHg 92%
    02:00 +5°C° 0 mm 7 mps 732 mmHg 92%
    03:00 +5°C° 0 mm 7 mps 732 mmHg 93%
    04:00 +5°C° 0 mm 7 mps 732 mmHg 92%
    05:00 +5°C° 0 mm 7 mps 732 mmHg 92%
    06:00 +5°C° 0 mm 7 mps 732 mmHg 92%
    07:00 +5°C° 0 mm 7 mps 731 mmHg 91%
    08:00 +4°C° 0 mm 7 mps 731 mmHg 90%
    09:00 +3°C° 0 mm 7 mps 730 mmHg 89%
    10:00 +4°C° 0 mm 8 mps 730 mmHg 87%
    11:00 +5°C° 0 mm 9 mps 729 mmHg 85%
    12:00 +6°C° 0 mm 10 mps 728 mmHg 83%
    13:00 +6°C° 0.1 mm 10 mps 727 mmHg 83%
    14:00 +6°C° 0.1 mm 10 mps 726 mmHg 84%
    15:00 +7°C° 0.1 mm 10 mps 725 mmHg 85%
    16:00 +7°C° 0.1 mm 10 mps 725 mmHg 86%
    17:00 +7°C° 0.1 mm 9 mps 725 mmHg 87%
    18:00 +7°C° 0.1 mm 8 mps 725 mmHg 88%
    19:00 +6°C° 0.8 mm 7 mps 725 mmHg 89%
    20:00 +5°C° 0.8 mm 6 mps 725 mmHg 89%
    21:00 +5°C° 0.8 mm 5 mps 725 mmHg 90%
    22:00 +3°C° 0.2 mm 5 mps 725 mmHg 90%
    23:00 +4°C° 0.2 mm 4 mps 725 mmHg 89%

    26 January, Saturday

    Time Temperature Precipitation Wind Pressure Humidity
    00:00 +3°C° 0.2 mm 4 mps 725 mmHg 89%
    01:00 +1°C° 0 mm 4 mps 725 mmHg 87%
    02:00 +1°C° 0 mm 4 mps 725 mmHg 85%
    03:00 0°C° 0 mm 4 mps 725 mmHg 84%
    04:00 0°C° 0 mm 4 mps 726 mmHg 85%
    05:00 -1°C° 0 mm 4 mps 726 mmHg 87%
    06:00 -1°C° 0 mm 4 mps 726 mmHg 89%
    07:00 0°C° 0 mm 3 mps 727 mmHg 90%
    08:00 0°C° 0 mm 3 mps 727 mmHg 91%
    09:00 -1°C° 0 mm 3 mps 728 mmHg 93%
    10:00 +1°C° 0 mm 2 mps 728 mmHg 88%
    11:00 +2°C° 0 mm 2 mps 728 mmHg 84%
    12:00 +3°C° 0 mm 2 mps 728 mmHg 79%
    13:00 +3°C° 0 mm 2 mps 728 mmHg 80%
    14:00 +3°C° 0 mm 2 mps 728 mmHg 80%
    15:00 +3°C° 0 mm 2 mps 728 mmHg 80%
    16:00 +2°C° 0.2 mm 3 mps 728 mmHg 81%
    17:00 0°C° 0.2 mm 4 mps 728 mmHg 82%
    18:00 0°C° 0.2 mm 5 mps 728 mmHg 83%
    19:00 -1°C° 0 mm 5 mps 728 mmHg 83%
    20:00 -1°C° 0 mm 5 mps 728 mmHg 83%
    21:00 -2°C° 0 mm 5 mps 728 mmHg 82%
    22:00 -2°C° 0 mm 5 mps 728 mmHg 83%
    23:00 -2°C° 0 mm 5 mps 728 mmHg 83%
    Show more